Socorro, NM

9:48 PM MST on November 19, 2017 (GMT -0700)
Socorro Municipal

Weather History for KONM - October, 2012

Change the Weather History Date:

Friday, October 12, 2012

  Actual Average Record
Temperature  
Mean Temperature 66 °F -  
Max Temperature 81 °F 76 °F 84 °F (2015)
Min Temperature 52 °F 40 °F 41 °F (2013)
Cooling Degree Days 2    
Growing Degree Days 16 (Base 50)    
Moisture  
Dew Point 42 °F    
Average Humidity 49    
Maximum Humidity 79    
Minimum Humidity 15    
Precipitation  
Precipitation 0.00 in - - ()
Sea Level Pressure  
Sea Level Pressure 30.06 in    
Wind  
Wind Speed 9 mph (SSW)    
Max Wind Speed 32 mph    
Max Gust Speed 41 mph    
Visibility 10 miles    
Events Rain , Thunderstorm    
Averages and records for this station are not official NWS values.
T = Trace of Precipitation, MM = Missing Value Source: NWS Daily Summary

Daily Weather History Graph

Daily Weather History Graph

Search for Another Location

Airport or City:

Trip Planner

Search our weather history database for the weather conditions in past years. The results will help you decide how hot, cold, wet, or windy it might be!

Date:

Astronomy

Oct. 12, 2012 Rise Set
Actual Time 7:10 AM MDT 6:36 PM MDT
Civil Twilight 6:45 AM MDT 7:01 PM MDT
Nautical Twilight 6:16 AM MDT 7:30 PM MDT
Astronomical Twilight 5:47 AM MDT 7:59 PM MDT
Moon 4:04 AM MDT (10/12) 4:42 PM MDT (10/12)
Length of Visible Light 12h 16m
Length of Day
11h 25m
Waning Crescent, 10% of the Moon is Illuminated
Oct 12
Waning Crescent
Oct 15
New
Oct 21
First Quarter
Oct 29
Full
Nov 6
Last Quarter

Hourly Weather History & Observations

Time (MDT) Temp. Dew Point Humidity Pressure Visibility Wind Dir Wind Speed Gust Speed Precip Events Conditions
12:35 AM 56.3 °F 46.2 °F 69% 30.12 in 10.0 mi WSW 5.8 mph - N/A   Clear
1:15 AM 57.9 °F 46.0 °F 65% 30.11 in 10.0 mi WSW 9.2 mph - N/A   Clear
1:35 AM 59.2 °F 46.8 °F 63% 30.11 in 10.0 mi WSW 8.1 mph - N/A   Clear
2:35 AM 56.5 °F 45.3 °F 66% 30.13 in 10.0 mi SW 4.6 mph - N/A   Mostly Cloudy
2:55 AM 56.3 °F 45.1 °F 66% 30.13 in 10.0 mi SW 6.9 mph - N/A   Scattered Clouds
3:15 AM 56.1 °F 45.0 °F 66% 30.11 in 10.0 mi SSW 5.8 mph - N/A   Clear
3:35 AM 58.3 °F 47.3 °F 67% 30.11 in 10.0 mi South 6.9 mph - N/A   Clear
4:15 AM 55.9 °F 45.9 °F 69% 30.10 in 10.0 mi WSW 5.8 mph - N/A   Scattered Clouds
4:35 AM 55.6 °F 45.5 °F 69% 30.09 in 10.0 mi Calm Calm - N/A   Scattered Clouds
4:55 AM 52.7 °F 45.3 °F 76% 30.08 in 10.0 mi Calm Calm - N/A   Scattered Clouds
5:15 AM 54.7 °F 45.1 °F 70% 30.10 in 10.0 mi Calm Calm - N/A   Mostly Cloudy
5:35 AM 54.5 °F 45.5 °F 72% 30.10 in 10.0 mi South 3.5 mph - N/A   Mostly Cloudy
5:55 AM 52.7 °F 45.1 °F 75% 30.10 in 10.0 mi SW 5.8 mph - N/A Thunderstorm Clear
6:15 AM 55.4 °F 46.8 °F 73% 30.12 in 10.0 mi SW 6.9 mph - N/A   Mostly Cloudy
6:35 AM 57.4 °F 47.8 °F 70% 30.11 in 10.0 mi Calm Calm - N/A   Mostly Cloudy
7:15 AM 52.2 °F 45.7 °F 79% 30.11 in 10.0 mi NW 3.5 mph - N/A   Clear
7:35 AM 53.1 °F 46.4 °F 78% 30.11 in 10.0 mi West 5.8 mph - N/A   Clear
7:55 AM 57.4 °F 48.7 °F 73% 30.13 in 10.0 mi South 3.5 mph - N/A Thunderstorm Scattered Clouds
8:15 AM 56.7 °F 49.3 °F 76% 30.13 in 10.0 mi Calm Calm - N/A   Mostly Cloudy
8:35 AM 58.5 °F 50.2 °F 74% 30.13 in 10.0 mi Calm Calm - N/A Rain Light Rain
8:55 AM 60.6 °F 50.7 °F 70% 30.14 in 10.0 mi SW 3.5 mph - N/A   Mostly Cloudy
9:15 AM 61.9 °F 49.5 °F 64% 30.14 in 10.0 mi SSW 3.5 mph - N/A   Scattered Clouds
9:35 AM 64.0 °F 49.6 °F 59% 30.14 in 10.0 mi South 3.5 mph - N/A Thunderstorm Scattered Clouds
10:55 AM 70.2 °F 51.8 °F 52% 30.12 in 10.0 mi South 11.5 mph - N/A   Clear
11:15 AM 72.3 °F 53.4 °F 51% 30.11 in 10.0 mi SSE 12.7 mph - N/A   Clear
11:35 AM 73.2 °F 53.8 °F 50% 30.10 in 10.0 mi SSE 15.0 mph 18.4 mph N/A   Clear
11:55 AM 75.2 °F 52.0 °F 44% 30.08 in 10.0 mi South 16.1 mph 26.5 mph N/A   Clear
12:35 PM 78.4 °F 46.4 °F 32% 30.06 in 10.0 mi South 19.6 mph 31.1 mph N/A   Clear
1:15 PM 79.7 °F 42.6 °F 27% 30.02 in 10.0 mi South 20.7 mph 36.8 mph N/A   Scattered Clouds
1:35 PM 80.4 °F 41.4 °F 25% 30.02 in 10.0 mi South 23.0 mph 31.1 mph N/A   Scattered Clouds
2:15 PM 80.1 °F 39.4 °F 23% 29.99 in 10.0 mi South 26.5 mph 34.5 mph N/A   Mostly Cloudy
2:35 PM 81.9 °F 37.4 °F 20% 29.97 in 7.0 mi South 29.9 mph 40.3 mph N/A   Scattered Clouds
2:55 PM 81.7 °F 36.7 °F 20% 29.97 in 10.0 mi South 25.3 mph 38.0 mph N/A   Clear
3:35 PM 81.3 °F 37.8 °F 21% 29.96 in 10.0 mi South 28.8 mph 40.3 mph N/A   Scattered Clouds
3:55 PM 81.5 °F 35.1 °F 19% 29.95 in 10.0 mi South 32.2 mph 40.3 mph N/A   Scattered Clouds
4:15 PM 81.7 °F 33.3 °F 17% 29.95 in 10.0 mi South 27.6 mph 41.4 mph N/A   Mostly Cloudy
5:15 PM 80.4 °F 28.4 °F 15% 29.94 in 10.0 mi SSW 28.8 mph 40.3 mph N/A   Clear
5:35 PM 79.7 °F 27.5 °F 15% 29.94 in 10.0 mi SSW 28.8 mph 40.3 mph N/A   Clear
5:55 PM 77.9 °F 26.4 °F 15% 29.95 in 10.0 mi SSW 26.5 mph 38.0 mph N/A   Clear
6:15 PM 77.0 °F 25.5 °F 15% 29.96 in 10.0 mi South 21.9 mph 34.5 mph N/A   Clear
6:35 PM 75.7 °F 25.7 °F 16% 29.96 in 10.0 mi SSW 20.7 mph 27.6 mph N/A   Clear
6:55 PM 74.8 °F 27.3 °F 17% 29.97 in 10.0 mi SSW 19.6 mph 26.5 mph N/A   Clear
11:35 PM 59.7 °F 22.1 °F 24% 30.07 in 10.0 mi East 3.5 mph - N/A   Clear